Time,TemperatureF,DewpointF,PressureIn,WindDirection,WindDirectionDegrees,WindSpeedMPH,WindSpeedGustMPH,Humidity,HourlyPrecipIn,Conditions,Clouds,dailyrainin,SoftwareType,DateUTC
2013-07-10 00:10:00,73.0,72.0,30.01,North,4,0.0,0.0,96,0.00,,,0.00,weatherlink.com 1.10,2013-07-10 04:10:00,
2013-07-10 00:25:00,72.7,72.0,30.01,North,4,0.0,0.0,97,0.00,,,0.00,weatherlink.com 1.10,2013-07-10 04:25:00,
2013-07-10 00:40:00,72.5,72.0,30.01,North,4,0.0,0.0,97,0.00,,,0.00,weatherlink.com 1.10,2013-07-10 04:40:00,
2013-07-10 00:55:00,72.3,71.0,30.00,North,4,0.0,0.0,97,0.00,,,0.00,weatherlink.com 1.10,2013-07-10 04:55:00,
2013-07-10 01:10:00,72.1,71.0,30.00,North,4,0.0,0.0,97,0.00,,,0.00,weatherlink.com 1.10,2013-07-10 05:10:00,
2013-07-10 01:25:00,71.8,71.0,29.99,North,4,0.0,0.0,97,0.00,,,0.00,weatherlink.com 1.10,2013-07-10 05:25:00,
2013-07-10 01:40:00,71.6,71.0,29.99,North,4,0.0,0.0,98,0.00,,,0.00,weatherlink.com 1.10,2013-07-10 05:40:00,
2013-07-10 01:55:00,71.6,71.0,29.98,North,4,0.0,0.0,98,0.00,,,0.00,weatherlink.com 1.10,2013-07-10 05:55:00,
2013-07-10 02:10:00,71.6,71.0,29.98,NNE,12,0.0,0.0,97,0.00,,,0.00,weatherlink.com 1.10,2013-07-10 06:10:00,
2013-07-10 02:25:00,71.6,71.0,29.98,NNE,12,0.0,1.0,97,0.00,,,0.00,weatherlink.com 1.10,2013-07-10 06:25:00,
2013-07-10 02:40:00,71.7,71.0,29.98,North,5,0.0,1.0,97,0.00,,,0.00,weatherlink.com 1.10,2013-07-10 06:40:00,
2013-07-10 02:55:00,71.8,71.0,29.98,North,5,0.0,0.0,97,0.00,,,0.00,weatherlink.com 1.10,2013-07-10 06:55:00,
2013-07-10 03:10:00,71.7,71.0,29.97,North,5,0.0,1.0,97,0.00,,,0.00,weatherlink.com 1.10,2013-07-10 07:10:00,
2013-07-10 03:25:00,71.3,70.0,29.97,North,6,0.0,1.0,97,0.00,,,0.00,weatherlink.com 1.10,2013-07-10 07:25:00,
2013-07-10 03:40:00,71.0,70.0,29.97,North,5,0.0,1.0,98,0.00,,,0.00,weatherlink.com 1.10,2013-07-10 07:40:00,
2013-07-10 03:55:00,70.9,70.0,29.97,North,5,0.0,1.0,98,0.00,,,0.00,weatherlink.com 1.10,2013-07-10 07:55:00,
2013-07-10 04:10:00,70.7,70.0,29.96,North,5,0.0,0.0,98,0.00,,,0.00,weatherlink.com 1.10,2013-07-10 08:10:00,
2013-07-10 04:25:00,70.6,70.0,29.96,North,5,0.0,0.0,98,0.00,,,0.00,weatherlink.com 1.10,2013-07-10 08:25:00,
2013-07-10 04:40:00,70.4,70.0,29.97,North,5,0.0,0.0,98,0.00,,,0.00,weatherlink.com 1.10,2013-07-10 08:40:00,
2013-07-10 04:55:00,70.4,70.0,29.97,North,5,0.0,0.0,99,0.00,,,0.00,weatherlink.com 1.10,2013-07-10 08:55:00,
2013-07-10 05:10:00,70.5,70.0,29.97,North,5,0.0,0.0,99,0.00,,,0.00,weatherlink.com 1.10,2013-07-10 09:10:00,
2013-07-10 05:25:00,70.5,70.0,29.97,North,5,0.0,0.0,98,0.00,,,0.00,weatherlink.com 1.10,2013-07-10 09:25:00,
2013-07-10 05:40:00,70.3,70.0,29.97,North,355,0.0,0.0,98,0.00,,,0.00,weatherlink.com 1.10,2013-07-10 09:40:00,
2013-07-10 05:55:00,70.3,70.0,29.97,North,356,0.0,0.0,99,0.00,,,0.00,weatherlink.com 1.10,2013-07-10 09:55:00,
2013-07-10 06:10:00,70.2,70.0,29.97,North,355,0.0,0.0,99,0.00,,,0.00,weatherlink.com 1.10,2013-07-10 10:10:00,
2013-07-10 06:25:00,70.4,70.0,29.97,North,355,0.0,0.0,99,0.00,,,0.00,weatherlink.com 1.10,2013-07-10 10:25:00,
2013-07-10 06:40:00,70.6,70.0,29.97,North,356,0.0,0.0,99,0.00,,,0.00,weatherlink.com 1.10,2013-07-10 10:40:00,
2013-07-10 06:55:00,70.8,71.0,29.96,North,356,0.0,0.0,99,0.00,,,0.00,weatherlink.com 1.10,2013-07-10 10:55:00,
2013-07-10 07:10:00,71.2,71.0,29.96,North,356,0.0,0.0,99,0.00,,,0.00,weatherlink.com 1.10,2013-07-10 11:10:00,
2013-07-10 07:25:00,71.7,71.0,29.96,North,356,0.0,0.0,98,0.00,,,0.00,weatherlink.com 1.10,2013-07-10 11:25:00,
2013-07-10 07:40:00,72.1,72.0,29.96,North,355,0.0,0.0,98,0.00,,,0.00,weatherlink.com 1.10,2013-07-10 11:40:00,
2013-07-10 07:55:00,72.7,72.0,29.95,North,355,0.0,0.0,98,0.00,,,0.00,weatherlink.com 1.10,2013-07-10 11:55:00,
2013-07-10 08:10:00,73.1,72.0,29.95,North,355,0.0,0.0,96,0.00,,,0.00,weatherlink.com 1.10,2013-07-10 12:10:00,
2013-07-10 08:25:00,73.5,72.0,29.95,North,355,0.0,1.0,96,0.00,,,0.00,weatherlink.com 1.10,2013-07-10 12:25:00,
2013-07-10 08:40:00,73.7,72.0,29.95,North,356,0.0,1.0,95,0.00,,,0.00,weatherlink.com 1.10,2013-07-10 12:40:00,
2013-07-10 08:55:00,73.8,72.0,29.95,NNE,16,0.0,1.0,94,0.00,,,0.00,weatherlink.com 1.10,2013-07-10 12:55:00,
2013-07-10 09:10:00,74.2,72.0,29.95,ENE,77,0.0,1.0,94,0.00,,,0.00,weatherlink.com 1.10,2013-07-10 13:10:00,
2013-07-10 09:25:00,75.2,73.0,29.94,East,95,0.0,1.0,93,0.00,,,0.00,weatherlink.com 1.10,2013-07-10 13:25:00,
2013-07-10 09:40:00,75.7,73.0,29.94,East,82,0.0,1.0,92,0.00,,,0.00,weatherlink.com 1.10,2013-07-10 13:40:00,
2013-07-10 09:55:00,75.8,73.0,29.93,ENE,58,0.0,1.0,91,0.00,,,0.00,weatherlink.com 1.10,2013-07-10 13:55:00,
2013-07-10 10:10:00,75.8,73.0,29.93,NNW,338,0.0,1.0,92,0.00,,,0.00,weatherlink.com 1.10,2013-07-10 14:10:00,
2013-07-10 10:26:00,76.3,74.0,29.93,SSE,149,0.0,2.0,92,0.00,,,0.00,weatherlink.com 1.10,2013-07-10 14:26:00,
2013-07-10 10:41:00,77.0,74.0,29.92,NNW,347,0.0,2.0,90,0.00,,,0.00,weatherlink.com 1.10,2013-07-10 14:41:00,
2013-07-10 10:56:00,77.0,74.0,29.92,NE,39,0.0,1.0,91,0.00,,,0.00,weatherlink.com 1.10,2013-07-10 14:56:00,
2013-07-10 11:11:00,77.9,75.0,29.92,North,356,0.0,4.0,89,0.00,,,0.00,weatherlink.com 1.10,2013-07-10 15:11:00,
2013-07-10 11:26:00,79.1,75.0,29.91,North,349,0.0,2.0,88,0.00,,,0.00,weatherlink.com 1.10,2013-07-10 15:26:00,
2013-07-10 11:41:00,79.7,75.0,29.90,SSE,148,0.0,2.0,86,0.00,,,0.00,weatherlink.com 1.10,2013-07-10 15:41:00,
2013-07-10 11:56:00,80.3,75.0,29.89,East,89,0.0,3.0,84,0.00,,,0.00,weatherlink.com 1.10,2013-07-10 15:56:00,
2013-07-10 12:11:00,82.5,76.0,29.88,SSE,155,0.0,3.0,80,0.00,,,0.00,weatherlink.com 1.10,2013-07-10 16:11:00,
2013-07-10 12:26:00,84.4,77.0,29.87,NNW,333,1.0,4.0,78,0.00,,,0.00,weatherlink.com 1.10,2013-07-10 16:26:00,
2013-07-10 12:41:00,85.7,77.0,29.87,NNW,342,0.0,3.0,75,0.00,,,0.00,weatherlink.com 1.10,2013-07-10 16:41:00,
2013-07-10 12:56:00,85.8,77.0,29.87,SW,222,1.0,2.0,74,0.00,,,0.00,weatherlink.com 1.10,2013-07-10 16:56:00,
2013-07-10 13:11:00,82.9,76.0,29.86,WSW,243,0.0,1.0,80,0.01,,,0.01,weatherlink.com 1.10,2013-07-10 17:11:00,
2013-07-10 13:26:00,78.8,75.0,29.86,SW,218,1.0,3.0,89,0.09,,,0.09,weatherlink.com 1.10,2013-07-10 17:26:00,
2013-07-10 13:41:00,77.0,75.0,29.86,South,187,0.0,1.0,94,0.09,,,0.09,weatherlink.com 1.10,2013-07-10 17:41:00,
2013-07-10 13:56:00,76.7,76.0,29.86,South,182,0.0,1.0,96,0.10,,,0.10,weatherlink.com 1.10,2013-07-10 17:56:00,
2013-07-10 14:11:00,76.6,75.0,29.86,NW,321,1.0,1.0,96,0.09,,,0.10,weatherlink.com 1.10,2013-07-10 18:11:00,
2013-07-10 14:26:00,76.9,75.0,29.85,ESE,103,0.0,1.0,95,0.02,,,0.10,weatherlink.com 1.10,2013-07-10 18:26:00,
2013-07-10 14:41:00,77.8,76.0,29.84,North,5,0.0,2.0,95,0.01,,,0.10,weatherlink.com 1.10,2013-07-10 18:41:00,
2013-07-10 14:56:00,79.5,77.0,29.83,SSE,150,0.0,2.0,92,0.00,,,0.10,weatherlink.com 1.10,2013-07-10 18:56:00,
2013-07-10 15:12:00,80.0,77.0,29.83,SE,143,0.0,1.0,91,0.00,,,0.10,weatherlink.com 1.10,2013-07-10 19:12:00,
2013-07-10 15:26:00,80.5,77.0,29.82,NNE,27,0.0,1.0,89,0.00,,,0.10,weatherlink.com 1.10,2013-07-10 19:26:00,
2013-07-10 15:41:00,81.6,79.0,29.81,SSE,151,0.0,2.0,90,0.00,,,0.10,weatherlink.com 1.10,2013-07-10 19:41:00,
2013-07-10 15:56:00,81.4,78.0,29.81,NE,54,0.0,1.0,89,0.00,,,0.10,weatherlink.com 1.10,2013-07-10 19:56:00,
2013-07-10 16:11:00,80.8,76.0,29.82,NNE,24,0.0,1.0,86,0.00,,,0.10,weatherlink.com 1.10,2013-07-10 20:11:00,
2013-07-10 16:26:00,80.9,78.0,29.81,NNW,347,0.0,1.0,89,0.00,,,0.10,weatherlink.com 1.10,2013-07-10 20:26:00,
2013-07-10 16:41:00,81.1,78.0,29.81,North,353,0.0,1.0,91,0.00,,,0.10,weatherlink.com 1.10,2013-07-10 20:41:00,
2013-07-10 16:56:00,81.0,78.0,29.80,North,353,0.0,0.0,89,0.00,,,0.10,weatherlink.com 1.10,2013-07-10 20:56:00,
2013-07-10 17:11:00,81.5,77.0,29.80,NNE,20,0.0,0.0,87,0.00,,,0.10,weatherlink.com 1.10,2013-07-10 21:11:00,
2013-07-10 17:26:00,81.4,78.0,29.79,SSE,147,0.0,1.0,89,0.00,,,0.10,weatherlink.com 1.10,2013-07-10 21:26:00,
2013-07-10 17:42:00,80.6,78.0,29.80,SSE,147,0.0,0.0,90,0.00,,,0.10,weatherlink.com 1.10,2013-07-10 21:42:00,
2013-07-10 17:57:00,80.3,78.0,29.80,SSE,151,0.0,1.0,91,0.00,,,0.10,weatherlink.com 1.10,2013-07-10 21:57:00,
2013-07-10 18:12:00,81.1,78.0,29.80,SE,146,0.0,1.0,90,0.00,,,0.10,weatherlink.com 1.10,2013-07-10 22:12:00,
2013-07-10 18:27:00,80.9,78.0,29.80,SE,124,0.0,1.0,89,0.00,,,0.10,weatherlink.com 1.10,2013-07-10 22:27:00,
2013-07-10 18:42:00,80.8,78.0,29.80,SE,124,0.0,0.0,90,0.00,,,0.10,weatherlink.com 1.10,2013-07-10 22:42:00,
2013-07-10 18:57:00,80.9,77.0,29.80,ESE,122,0.0,1.0,88,0.00,,,0.10,weatherlink.com 1.10,2013-07-10 22:57:00,
2013-07-10 19:12:00,80.7,77.0,29.81,ESE,113,0.0,1.0,89,0.00,,,0.10,weatherlink.com 1.10,2013-07-10 23:12:00,
2013-07-10 19:27:00,80.3,77.0,29.81,ESE,113,0.0,0.0,90,0.00,,,0.10,weatherlink.com 1.10,2013-07-10 23:27:00,
2013-07-10 19:42:00,79.7,77.0,29.82,ESE,113,0.0,0.0,91,0.00,,,0.10,weatherlink.com 1.10,2013-07-10 23:42:00,
2013-07-10 19:57:00,79.3,77.0,29.81,ESE,113,0.0,0.0,92,0.00,,,0.10,weatherlink.com 1.10,2013-07-10 23:57:00,
2013-07-10 20:12:00,78.8,76.0,29.81,ESE,113,0.0,1.0,92,0.00,,,0.10,weatherlink.com 1.10,2013-07-11 00:12:00,
2013-07-10 20:27:00,78.4,76.0,29.82,ESE,113,0.0,0.0,93,0.00,,,0.10,weatherlink.com 1.10,2013-07-11 00:27:00,
2013-07-10 20:42:00,77.9,76.0,29.81,ESE,113,0.0,0.0,93,0.00,,,0.10,weatherlink.com 1.10,2013-07-11 00:42:00,
2013-07-10 20:57:00,77.6,76.0,29.82,ESE,113,0.0,1.0,94,0.00,,,0.10,weatherlink.com 1.10,2013-07-11 00:57:00,
2013-07-10 21:12:00,77.2,75.0,29.82,ESE,113,0.0,1.0,94,0.00,,,0.10,weatherlink.com 1.10,2013-07-11 01:12:00,
2013-07-10 21:27:00,76.8,75.0,29.82,ESE,113,0.0,1.0,94,0.00,,,0.10,weatherlink.com 1.10,2013-07-11 01:27:00,
2013-07-10 21:42:00,76.5,75.0,29.84,ESE,113,0.0,1.0,95,0.00,,,0.10,weatherlink.com 1.10,2013-07-11 01:42:00,
2013-07-10 21:57:00,76.1,75.0,29.84,ESE,113,0.0,0.0,96,0.00,,,0.10,weatherlink.com 1.10,2013-07-11 01:57:00,
2013-07-10 22:12:00,75.6,74.0,29.84,ESE,113,0.0,1.0,96,0.00,,,0.10,weatherlink.com 1.10,2013-07-11 02:12:00,
2013-07-10 22:27:00,75.4,74.0,29.84,ESE,113,0.0,1.0,96,0.00,,,0.10,weatherlink.com 1.10,2013-07-11 02:27:00,
2013-07-10 22:42:00,75.3,74.0,29.84,ESE,113,0.0,1.0,97,0.00,,,0.10,weatherlink.com 1.10,2013-07-11 02:42:00,
2013-07-10 22:57:00,75.0,74.0,29.83,ESE,113,0.0,1.0,97,0.00,,,0.10,weatherlink.com 1.10,2013-07-11 02:57:00,
2013-07-10 23:12:00,74.7,74.0,29.83,ESE,113,0.0,0.0,97,0.00,,,0.10,weatherlink.com 1.10,2013-07-11 03:12:00,
2013-07-10 23:27:00,74.4,74.0,29.83,ESE,113,0.0,0.0,97,0.00,,,0.10,weatherlink.com 1.10,2013-07-11 03:27:00,
2013-07-10 23:42:00,74.4,74.0,29.82,ESE,113,0.0,0.0,97,0.00,,,0.10,weatherlink.com 1.10,2013-07-11 03:42:00,
2013-07-10 23:57:00,74.3,73.0,29.82,ESE,113,0.0,0.0,96,0.00,,,0.10,weatherlink.com 1.10,2013-07-11 03:57:00,